| time (UTC) | temp F | wind direction | speed knots | gust knots | rain 1hr in | rain 24hr in | rain mn in | humidity % | barometer mb |
| 20260507213534 | 66 | 317 | 4.3 | 10.4 | 0.00 | 0.00 | 0.00 | 40 | 1007.8 |
| 20260507213045 | 66 | 340 | 4.3 | 10.4 | 0.00 | 0.00 | 0.00 | 39 | 1007.8 |
| 20260507212536 | 66 | 306 | 4.3 | 13.0 | 0.00 | 0.00 | 0.00 | 38 | 1007.7 |
| 20260507212035 | 66 | 324 | 7.0 | 13.9 | 0.00 | 0.00 | 0.00 | 38 | 1007.7 |
| 20260507211548 | 66 | 294 | 4.3 | 13.9 | 0.00 | 0.00 | 0.00 | 36 | 1007.6 |
| 20260507211034 | 67 | 295 | 7.8 | 13.9 | 0.00 | 0.00 | 0.00 | 35 | 1007.7 |
| 20260507210533 | 68 | 272 | 4.3 | 10.4 | 0.00 | 0.00 | 0.00 | 36 | 1007.6 |
| 20260507210052 | 68 | 257 | 2.6 | 9.6 | 0.00 | 0.00 | 0.00 | 38 | 1007.6 |
| 20260507205536 | 68 | 360 | 1.7 | 9.6 | 0.00 | 0.00 | 0.00 | 38 | 1007.4 |
| 20260507205036 | 68 | 294 | 3.5 | 10.4 | 0.00 | 0.00 | 0.00 | 37 | 1007.4 |
| 20260507204548 | 68 | 327 | 4.3 | 10.4 | 0.00 | 0.00 | 0.00 | 37 | 1007.5 |
| 20260507204035 | 68 | 309 | 1.7 | 9.6 | 0.00 | 0.00 | 0.00 | 41 | 1007.4 |
| 20260507203534 | 68 | 32 | 4.3 | 11.3 | 0.00 | 0.00 | 0.00 | 39 | 1007.4 |
| 20260507203049 | 68 | 23 | 5.2 | 11.3 | 0.00 | 0.00 | 0.00 | 39 | 1007.5 |
| 20260507202535 | 68 | 332 | 5.2 | 11.3 | 0.00 | 0.00 | 0.00 | 40 | 1007.6 |
| 20260507202038 | 69 | 333 | 4.3 | 9.6 | 0.00 | 0.00 | 0.00 | 39 | 1007.5 |
| 20260507201549 | 69 | 254 | 2.6 | 9.6 | 0.00 | 0.00 | 0.00 | 40 | 1007.4 |
| 20260507201035 | 68 | 344 | 2.6 | 7.8 | 0.00 | 0.00 | 0.00 | 39 | 1007.4 |
| 20260507200536 | 68 | 259 | 3.5 | 7.0 | 0.00 | 0.00 | 0.00 | 42 | 1007.5 |
| 20260507200054 | 67 | 355 | 2.6 | 11.3 | 0.00 | 0.00 | 0.00 | 43 | 1007.7 |
| 20260507195535 | 66 | 290 | 2.6 | 12.2 | 0.00 | 0.00 | 0.00 | 42 | 1007.7 |
| 20260507195035 | 66 | 355 | 5.2 | 12.2 | 0.00 | 0.00 | 0.00 | 43 | 1007.7 |
| 20260507194549 | 66 | 320 | 3.5 | 9.6 | 0.00 | 0.00 | 0.00 | 44 | 1007.7 |
| 20260507194034 | 65 | 270 | 0.9 | 4.3 | 0.00 | 0.00 | 0.00 | 50 | 1007.8 |
| 20260507193535 | 65 | 32 | 0.9 | 4.3 | 0.00 | 0.00 | 0.00 | 46 | 1007.8 |
| 20260507193051 | 65 | 0 | 0.9 | 3.5 | 0.00 | 0.00 | 0.00 | 46 | 1008.0 |
| 20260507192533 | 65 | 219 | 0.0 | 3.5 | 0.00 | 0.00 | 0.00 | 47 | 1008.2 |
| 20260507192034 | 65 | 131 | 0.9 | 3.5 | 0.00 | 0.00 | 0.00 | 47 | 1008.2 |
| 20260507191548 | 64 | 123 | 0.9 | 2.6 | 0.00 | 0.00 | 0.00 | 47 | 1008.2 |
| 20260507191035 | 64 | 0 | 0.0 | 3.5 | 0.00 | 0.00 | 0.00 | 46 | 1008.2 |
| 20260507190534 | 64 | 79 | 1.7 | 3.5 | 0.00 | 0.00 | 0.00 | 45 | 1008.0 |
| 20260507190053 | 64 | 0 | 0.9 | 3.5 | 0.00 | 0.00 | 0.00 | 44 | 1008.2 |
| 20260507185534 | 64 | 58 | 0.0 | 3.5 | 0.00 | 0.00 | 0.00 | 46 | 1008.5 |
| 20260507185036 | 64 | 327 | 0.9 | 7.0 | 0.00 | 0.00 | 0.00 | 47 | 1008.6 |
| 20260507184543 | 65 | 311 | 2.6 | 7.0 | 0.00 | 0.00 | 0.00 | 46 | 1008.6 |
| 20260507184035 | 66 | 306 | 1.7 | 4.3 | 0.00 | 0.00 | 0.00 | 44 | 1008.5 |
| 20260507183539 | 66 | 45 | 2.6 | 9.6 | 0.00 | 0.00 | 0.00 | 45 | 1008.6 |
| 20260507183052 | 66 | 330 | 0.9 | 9.6 | 0.00 | 0.00 | 0.00 | 45 | 1008.6 |
| 20260507182535 | 66 | 340 | 4.3 | 9.6 | 0.00 | 0.00 | 0.00 | 47 | 1008.7 |
| 20260507182034 | 65 | 250 | 4.3 | 9.6 | 0.00 | 0.00 | 0.00 | 46 | 1008.7 |
| 20260507181539 | 65 | 282 | 5.2 | 9.6 | 0.00 | 0.00 | 0.00 | 46 | 1008.7 |
| 20260507181034 | 65 | 274 | 2.6 | 10.4 | 0.00 | 0.00 | 0.00 | 49 | 1008.8 |
| 20260507180535 | 64 | 198 | 1.7 | 10.4 | 0.00 | 0.00 | 0.00 | 51 | 1008.8 |
| 20260507180039 | 63 | 146 | 3.5 | 10.4 | 0.00 | 0.00 | 0.00 | 53 | 1008.8 |
| 20260507175534 | 62 | 104 | 0.9 | 5.2 | 0.00 | 0.00 | 0.00 | 51 | 1009.0 |
| 20260507175035 | 62 | 0 | 0.9 | 3.5 | 0.00 | 0.00 | 0.00 | 57 | 1009.2 |
| 20260507174554 | 62 | 125 | 1.7 | 5.2 | 0.00 | 0.00 | 0.00 | 55 | 1009.1 |
| 20260507174034 | 62 | 0 | 0.0 | 5.2 | 0.00 | 0.00 | 0.00 | 54 | 1009.3 |
| 20260507173533 | 62 | 198 | 1.7 | 5.2 | 0.00 | 0.00 | 0.00 | 52 | 1009.6 |
| 20260507173044 | 61 | 0 | 0.0 | 5.2 | 0.00 | 0.00 | 0.00 | 53 | 1009.5 |
| 20260507172541 | 61 | 123 | 0.0 | 6.1 | 0.00 | 0.00 | 0.00 | 53 | 1009.7 |
| 20260507172036 | 61 | 174 | 2.6 | 6.1 | 0.00 | 0.00 | 0.00 | 52 | 1009.6 |
| 20260507171556 | 62 | 207 | 1.7 | 4.3 | 0.00 | 0.00 | 0.00 | 51 | 1009.7 |
| 20260507171033 | 62 | 0 | 0.0 | 7.8 | 0.00 | 0.00 | 0.00 | 50 | 1009.8 |
| 20260507170534 | 62 | 24 | 2.6 | 7.8 | 0.00 | 0.00 | 0.00 | 50 | 1009.9 |
| 20260507170053 | 62 | 290 | 4.3 | 7.8 | 0.00 | 0.00 | 0.00 | 53 | 1010.0 |
| 20260507165535 | 62 | 242 | 3.5 | 5.2 | 0.00 | 0.00 | 0.00 | 53 | 1009.9 |
| 20260507165037 | 62 | 0 | 0.9 | 4.3 | 0.00 | 0.00 | 0.00 | 51 | 1010.0 |
| 20260507164547 | 61 | 16 | 0.9 | 4.3 | 0.00 | 0.00 | 0.00 | 53 | 1010.1 |
| 20260507164036 | 61 | 5 | 1.7 | 4.3 | 0.00 | 0.00 | 0.00 | 51 | 1010.4 |
| 20260507163536 | 61 | 82 | 1.7 | 6.1 | 0.00 | 0.00 | 0.00 | 49 | 1010.3 |
| 20260507163047 | 61 | 51 | 0.9 | 6.1 | 0.00 | 0.00 | 0.00 | 54 | 1010.5 |
| 20260507162540 | 61 | 98 | 1.7 | 7.8 | 0.00 | 0.00 | 0.00 | 51 | 1010.7 |
| 20260507162035 | 61 | 113 | 3.5 | 7.8 | 0.00 | 0.00 | 0.00 | 52 | 1010.7 |
| 20260507161552 | 60 | 148 | 1.7 | 7.8 | 0.00 | 0.00 | 0.00 | 54 | 1010.7 |
| 20260507161036 | 60 | 114 | 1.7 | 8.7 | 0.00 | 0.00 | 0.00 | 52 | 1010.7 |
| 20260507160537 | 60 | 150 | 3.5 | 8.7 | 0.00 | 0.00 | 0.00 | 53 | 1010.8 |
| 20260507160045 | 60 | 164 | 3.5 | 8.7 | 0.00 | 0.00 | 0.00 | 54 | 1010.9 |
| 20260507155535 | 59 | 185 | 1.7 | 8.7 | 0.00 | 0.00 | 0.00 | 54 | 1010.9 |
| 20260507155037 | 59 | 100 | 3.5 | 8.7 | 0.00 | 0.00 | 0.00 | 52 | 1010.9 |
| 20260507154546 | 59 | 36 | 3.5 | 7.8 | 0.00 | 0.00 | 0.00 | 53 | 1011.1 |
| 20260507154034 | 59 | 67 | 3.5 | 6.1 | 0.00 | 0.00 | 0.00 | 54 | 1011.2 |
| 20260507153535 | 59 | 35 | 0.9 | 7.8 | 0.00 | 0.00 | 0.00 | 56 | 1011.2 |
| 20260507153106 | 58 | 76 | 2.6 | 7.8 | 0.00 | 0.00 | 0.00 | 53 | 1011.3 |
| 20260507152537 | 58 | 191 | 1.7 | 6.1 | 0.00 | 0.00 | 0.00 | 57 | 1011.4 |
| 20260507152035 | 57 | 71 | 1.7 | 6.1 | 0.00 | 0.00 | 0.00 | 55 | 1011.5 |
| 20260507151539 | 57 | 44 | 2.6 | 6.1 | 0.00 | 0.00 | 0.00 | 56 | 1011.6 |
| 20260507151037 | 57 | 46 | 1.7 | 6.1 | 0.00 | 0.00 | 0.00 | 56 | 1011.6 |
| 20260507150533 | 56 | 346 | 0.0 | 7.8 | 0.00 | 0.00 | 0.00 | 57 | 1011.7 |
| 20260507150052 | 56 | 281 | 2.6 | 7.8 | 0.00 | 0.00 | 0.00 | 54 | 1011.8 |
| 20260507145538 | 56 | 94 | 3.5 | 7.8 | 0.00 | 0.00 | 0.00 | 57 | 1011.8 |
| 20260507145034 | 55 | 70 | 2.6 | 7.8 | 0.00 | 0.00 | 0.00 | 56 | 1012.0 |
| 20260507144546 | 55 | 30 | 2.6 | 7.8 | 0.00 | 0.00 | 0.00 | 56 | 1012.2 |
| 20260507144034 | 55 | 10 | 2.6 | 7.8 | 0.00 | 0.00 | 0.00 | 57 | 1012.1 |
| 20260507143536 | 55 | 32 | 2.6 | 6.1 | 0.00 | 0.00 | 0.00 | 58 | 1012.2 |
| 20260507143051 | 55 | 36 | 0.9 | 6.1 | 0.00 | 0.00 | 0.00 | 59 | 1012.4 |
| 20260507142534 | 54 | 67 | 0.9 | 6.1 | 0.00 | 0.00 | 0.00 | 59 | 1012.3 |
| 20260507142031 | 54 | 50 | 1.7 | 7.8 | 0.00 | 0.00 | 0.00 | 60 | 1012.4 |
| 20260507141542 | 54 | 0 | 1.7 | 7.8 | 0.00 | 0.00 | 0.00 | 59 | 1012.5 |
| 20260507141032 | 54 | 16 | 2.6 | 7.8 | 0.00 | 0.00 | 0.00 | 60 | 1012.5 |
| 20260507140534 | 53 | 5 | 0.9 | 3.5 | 0.00 | 0.00 | 0.00 | 60 | 1012.6 |
| 20260507140057 | 53 | 360 | 0.9 | 4.3 | 0.00 | 0.00 | 0.00 | 62 | 1012.8 |
| 20260507135534 | 53 | 46 | 1.7 | 4.3 | 0.00 | 0.03 | 0.00 | 61 | 1012.8 |
| 20260507135040 | 53 | 30 | 0.0 | 4.3 | 0.00 | 0.03 | 0.00 | 62 | 1012.9 |
| 20260507134539 | 53 | 72 | 0.9 | 3.5 | 0.00 | 0.03 | 0.00 | 64 | 1013.0 |
| 20260507134036 | 53 | 325 | 0.9 | 4.3 | 0.00 | 0.03 | 0.00 | 64 | 1013.0 |
| 20260507133534 | 53 | 333 | 0.9 | 4.3 | 0.00 | 0.03 | 0.00 | 66 | 1013.1 |
| 20260507133047 | 52 | 37 | 0.0 | 4.3 | 0.00 | 0.03 | 0.00 | 65 | 1013.1 |
| 20260507132537 | 52 | 0 | 0.9 | 4.3 | 0.00 | 0.03 | 0.00 | 65 | 1013.2 |
| 20260507132139 | 52 | 23 | 0.9 | 4.3 | 0.00 | 0.03 | 0.00 | 65 | 1013.3 |
| 20260507131544 | 52 | 0 | 1.7 | 5.2 | 0.00 | 0.03 | 0.00 | 65 | 1013.3 |
| 20260507131035 | 52 | 360 | 1.7 | 5.2 | 0.00 | 0.03 | 0.00 | 65 | 1013.4 |
| 20260507130533 | 52 | 0 | 0.9 | 5.2 | 0.00 | 0.03 | 0.00 | 67 | 1013.3 |
| 20260507130057 | 52 | 45 | 1.7 | 5.2 | 0.00 | 0.03 | 0.00 | 67 | 1013.1 |
| 20260507125536 | 52 | 0 | 0.0 | 4.3 | 0.00 | 0.08 | 0.00 | 68 | 1013.0 |
| 20260507125033 | 52 | 41 | 1.7 | 4.3 | 0.00 | 0.08 | 0.00 | 68 | 1013.0 |
| 20260507124557 | 52 | 50 | 0.9 | 4.3 | 0.00 | 0.08 | 0.00 | 68 | 1013.1 |
| 20260507124036 | 52 | 21 | 0.9 | 3.5 | 0.00 | 0.08 | 0.00 | 68 | 1012.9 |
| 20260507123536 | 52 | 54 | 0.9 | 4.3 | 0.00 | 0.08 | 0.00 | 69 | 1012.9 |
| 20260507123057 | 52 | 37 | 0.9 | 5.2 | 0.00 | 0.08 | 0.00 | 68 | 1013.1 |
| 20260507122536 | 52 | 348 | 2.6 | 5.2 | 0.00 | 0.08 | 0.00 | 68 | 1013.0 |
| 20260507122036 | 52 | 52 | 0.9 | 5.2 | 0.00 | 0.08 | 0.00 | 70 | 1013.0 |
| 20260507121543 | 52 | 5 | 0.9 | 4.3 | 0.00 | 0.08 | 0.00 | 70 | 1012.9 |
| 20260507121033 | 52 | 355 | 0.9 | 4.3 | 0.00 | 0.08 | 0.00 | 70 | 1012.9 |
| 20260507120542 | 52 | 341 | 0.9 | 4.3 | 0.00 | 0.08 | 0.00 | 71 | 1012.9 |
| 20260507120040 | 52 | 342 | 0.9 | 5.2 | 0.00 | 0.08 | 0.00 | 72 | 1012.9 |
| 20260507115534 | 52 | 26 | 1.7 | 5.2 | 0.00 | 0.12 | 0.00 | 72 | 1012.8 |
| 20260507115034 | 52 | 0 | 1.7 | 5.2 | 0.00 | 0.12 | 0.00 | 74 | 1012.8 |
| 20260507114547 | 52 | 29 | 0.0 | 5.2 | 0.00 | 0.12 | 0.00 | 76 | 1012.7 |
| 20260507114034 | 52 | 29 | 0.9 | 5.2 | 0.00 | 0.12 | 0.00 | 77 | 1012.7 |
| 20260507113541 | 52 | 54 | 1.7 | 5.2 | 0.00 | 0.12 | 0.00 | 78 | 1012.7 |
| 20260507113045 | 53 | 46 | 1.7 | 4.3 | 0.00 | 0.12 | 0.00 | 78 | 1012.6 |
| 20260507112535 | 53 | 331 | 1.7 | 4.3 | 0.00 | 0.12 | 0.00 | 78 | 1012.4 |
| 20260507112033 | 53 | 346 | 0.9 | 3.5 | 0.00 | 0.12 | 0.00 | 79 | 1012.4 |
| 20260507111544 | 53 | 5 | 0.9 | 3.5 | 0.00 | 0.12 | 0.00 | 79 | 1012.3 |
| 20260507111035 | 53 | 0 | 0.0 | 3.5 | 0.00 | 0.12 | 0.00 | 79 | 1012.3 |
| 20260507110533 | 53 | 5 | 0.9 | 3.5 | 0.00 | 0.12 | 0.00 | 79 | 1012.3 |
| 20260507110043 | 53 | 0 | 0.0 | 3.5 | 0.00 | 0.12 | 0.00 | 79 | 1012.3 |
| 20260507105533 | 53 | 49 | 0.9 | 2.6 | 0.00 | 0.13 | 0.00 | 79 | 1012.2 |
| 20260507105035 | 53 | 49 | 0.9 | 2.6 | 0.00 | 0.13 | 0.00 | 79 | 1012.3 |
| 20260507104550 | 53 | 0 | 0.0 | 0.9 | 0.00 | 0.13 | 0.00 | 79 | 1012.3 |
| 20260507104037 | 53 | 0 | 0.0 | 0.9 | 0.00 | 0.13 | 0.00 | 79 | 1012.2 |
| 20260507103533 | 53 | 0 | 0.0 | 0.9 | 0.00 | 0.13 | 0.00 | 79 | 1012.0 |
| 20260507103044 | 53 | 0 | 0.0 | 0.0 | 0.00 | 0.13 | 0.00 | 77 | 1012.0 |
| 20260507102534 | 53 | 0 | 0.0 | 0.0 | 0.00 | 0.13 | 0.00 | 77 | 1011.9 |
| 20260507102033 | 53 | 0 | 0.0 | 4.3 | 0.00 | 0.13 | 0.00 | 77 | 1011.9 |
| 20260507101556 | 53 | 0 | 0.0 | 4.3 | 0.00 | 0.13 | 0.00 | 76 | 1011.8 |
| 20260507101032 | 53 | 0 | 0.9 | 3.5 | 0.00 | 0.13 | 0.00 | 76 | 1011.8 |
| 20260507100533 | 53 | 0 | 0.0 | 1.7 | 0.00 | 0.13 | 0.00 | 76 | 1011.8 |
| 20260507100055 | 53 | 0 | 0.0 | 3.5 | 0.00 | 0.13 | 0.00 | 76 | 1011.9 |
| 20260507095535 | 53 | 0 | 0.9 | 3.5 | 0.00 | 0.13 | 0.00 | 75 | 1011.6 |
| 20260507095037 | 53 | 0 | 0.0 | 2.6 | 0.00 | 0.13 | 0.00 | 75 | 1011.5 |
| 20260507094549 | 53 | 0 | 0.0 | 7.0 | 0.00 | 0.13 | 0.00 | 75 | 1011.5 |
| 20260507094033 | 54 | 0 | 0.0 | 7.0 | 0.00 | 0.13 | 0.00 | 74 | 1011.7 |
| 20260507093532 | 54 | 56 | 2.6 | 7.0 | 0.00 | 0.13 | 0.00 | 74 | 1011.7 |
| 20260507093042 | 54 | 325 | 0.9 | 4.3 | 0.00 | 0.13 | 0.00 | 74 | 1011.6 |
| 20260507092535 | 54 | 0 | 0.0 | 4.3 | 0.00 | 0.13 | 0.00 | 73 | 1011.5 |
| 20260507092038 | 54 | 296 | 0.9 | 3.5 | 0.00 | 0.13 | 0.00 | 74 | 1011.6 |
| 20260507091538 | 54 | 326 | 0.0 | 1.7 | 0.00 | 0.13 | 0.00 | 74 | 1011.5 |
| 20260507091032 | 54 | 0 | 0.0 | 3.5 | 0.00 | 0.13 | 0.00 | 73 | 1011.4 |
| 20260507090532 | 54 | 0 | 0.0 | 3.5 | 0.00 | 0.13 | 0.00 | 74 | 1011.4 |
| 20260507090039 | 54 | 326 | 1.7 | 5.2 | 0.00 | 0.13 | 0.00 | 73 | 1011.4 |
| 20260507085533 | 54 | 355 | 0.9 | 6.1 | 0.00 | 0.13 | 0.00 | 73 | 1011.3 |
| 20260507085034 | 54 | 318 | 2.6 | 6.1 | 0.00 | 0.13 | 0.00 | 73 | 1011.4 |
| 20260507084544 | 54 | 269 | 2.6 | 7.0 | 0.00 | 0.13 | 0.00 | 72 | 1011.5 |
| 20260507084033 | 54 | 319 | 2.6 | 7.0 | 0.00 | 0.13 | 0.00 | 72 | 1011.4 |
| 20260507083533 | 54 | 327 | 2.6 | 7.0 | 0.00 | 0.13 | 0.00 | 72 | 1011.5 |
| 20260507083103 | 54 | 346 | 2.6 | 7.0 | 0.00 | 0.13 | 0.00 | 72 | 1011.5 |
| 20260507082533 | 54 | 312 | 1.7 | 8.7 | 0.00 | 0.13 | 0.00 | 72 | 1011.6 |
| 20260507082036 | 54 | 293 | 1.7 | 8.7 | 0.00 | 0.13 | 0.00 | 71 | 1011.5 |
| 20260507081553 | 54 | 323 | 4.3 | 8.7 | 0.00 | 0.13 | 0.00 | 71 | 1011.5 |
| 20260507081038 | 54 | 265 | 0.9 | 3.5 | 0.00 | 0.13 | 0.00 | 72 | 1011.4 |
| 20260507080533 | 54 | 326 | 1.7 | 3.5 | 0.00 | 0.13 | 0.00 | 72 | 1011.6 |
| 20260507080050 | 54 | 211 | 1.7 | 7.0 | 0.00 | 0.13 | 0.00 | 72 | 1011.5 |
| 20260507075535 | 54 | 312 | 1.7 | 7.0 | 0.00 | 0.13 | 0.00 | 71 | 1011.3 |
| 20260507075036 | 54 | 267 | 2.6 | 7.0 | 0.00 | 0.13 | 0.00 | 71 | 1011.3 |
| 20260507074549 | 54 | 57 | 2.6 | 7.0 | 0.00 | 0.13 | 0.00 | 72 | 1011.3 |
| 20260507074035 | 54 | 136 | 1.7 | 5.2 | 0.00 | 0.13 | 0.00 | 72 | 1011.1 |
| 20260507073532 | 54 | 112 | 1.7 | 5.2 | 0.00 | 0.13 | 0.00 | 73 | 1011.2 |
| 20260507073058 | 54 | 78 | 0.9 | 9.6 | 0.00 | 0.13 | 0.00 | 73 | 1011.1 |
| 20260507072536 | 54 | 119 | 0.9 | 9.6 | 0.00 | 0.13 | 0.00 | 73 | 1011.0 |
| 20260507072038 | 54 | 32 | 2.6 | 9.6 | 0.00 | 0.13 | 0.00 | 73 | 1010.9 |
| 20260507071552 | 54 | 115 | 4.3 | 7.8 | 0.00 | 0.13 | 0.00 | 73 | 1011.1 |
| 20260507071036 | 54 | 134 | 2.6 | 7.0 | 0.00 | 0.13 | 0.00 | 75 | 1011.1 |
| 20260507070536 | 54 | 144 | 0.9 | 7.0 | 0.00 | 0.13 | 0.00 | 74 | 1011.1 |
| 20260507070046 | 54 | 0 | 0.9 | 7.8 | 0.00 | 0.13 | 0.00 | 74 | 1011.0 |
| 20260507065533 | 54 | 42 | 1.7 | 7.8 | 0.00 | 0.13 | 0.00 | 74 | 1011.0 |
| 20260507065036 | 54 | 0 | 2.6 | 7.0 | 0.00 | 0.13 | 0.00 | 75 | 1011.2 |
| 20260507064543 | 54 | 98 | 2.6 | 7.0 | 0.00 | 0.13 | 0.00 | 76 | 1011.3 |
| 20260507064036 | 54 | 333 | 2.6 | 7.8 | 0.00 | 0.13 | 0.00 | 76 | 1011.3 |
| 20260507063534 | 54 | 207 | 3.5 | 7.8 | 0.00 | 0.13 | 0.00 | 78 | 1011.3 |
| 20260507063053 | 54 | 67 | 0.9 | 3.5 | 0.00 | 0.13 | 0.00 | 78 | 1011.3 |
| 20260507062536 | 54 | 83 | 0.9 | 4.3 | 0.00 | 0.13 | 0.00 | 79 | 1011.3 |
| 20260507062033 | 54 | 83 | 1.7 | 7.8 | 0.00 | 0.13 | 0.00 | 79 | 1011.5 |
| 20260507061545 | 54 | 325 | 1.7 | 7.8 | 0.00 | 0.13 | 0.00 | 81 | 1011.6 |
| 20260507061033 | 54 | 360 | 0.9 | 7.0 | 0.00 | 0.13 | 0.00 | 82 | 1011.5 |
| 20260507060535 | 54 | 103 | 2.6 | 6.1 | 0.00 | 0.13 | 0.00 | 82 | 1011.6 |
| 20260507060049 | 54 | 55 | 1.7 | 3.5 | 0.00 | 0.13 | 0.00 | 82 | 1011.5 |
| 20260507055539 | 54 | 0 | 0.9 | 3.5 | 0.00 | 0.13 | 0.00 | 82 | 1011.8 |
| 20260507055036 | 54 | 30 | 0.9 | 7.0 | 0.00 | 0.13 | 0.00 | 82 | 1011.8 |
| 20260507054544 | 54 | 69 | 2.6 | 7.0 | 0.00 | 0.13 | 0.00 | 82 | 1011.9 |
| 20260507054037 | 55 | 107 | 2.6 | 6.1 | 0.00 | 0.13 | 0.00 | 82 | 1011.6 |
| 20260507053537 | 55 | 67 | 0.9 | 5.2 | 0.00 | 0.13 | 0.00 | 83 | 1011.6 |
| 20260507053045 | 55 | 68 | 2.6 | 4.3 | 0.00 | 0.13 | 0.00 | 83 | 1011.5 |
| 20260507052537 | 55 | 39 | 0.9 | 8.7 | 0.00 | 0.13 | 0.00 | 83 | 1011.4 |
| 20260507052034 | 55 | 74 | 3.5 | 8.7 | 0.00 | 0.13 | 0.00 | 83 | 1011.3 |
| 20260507051544 | 55 | 56 | 3.5 | 7.8 | 0.00 | 0.13 | 0.00 | 83 | 1011.2 |
| 20260507051033 | 55 | 115 | 2.6 | 7.0 | 0.00 | 0.13 | 0.00 | 83 | 1011.1 |
| 20260507050535 | 55 | 101 | 4.3 | 7.0 | 0.00 | 0.13 | 0.00 | 83 | 1011.1 |
| 20260507050042 | 55 | 0 | 1.7 | 7.8 | 0.00 | 0.13 | 0.00 | 82 | 1011.1 |
| 20260507045538 | 56 | 323 | 1.7 | 9.6 | 0.00 | 0.13 | 0.00 | 82 | 1011.1 |
| 20260507045034 | 56 | 77 | 0.9 | 9.6 | 0.00 | 0.13 | 0.00 | 81 | 1010.9 |
| 20260507044549 | 56 | 323 | 1.7 | 8.7 | 0.00 | 0.13 | 0.00 | 81 | 1011.1 |
| 20260507044036 | 57 | 27 | 1.7 | 7.8 | 0.00 | 0.13 | 0.00 | 80 | 1011.0 |
| 20260507043534 | 57 | 339 | 0.9 | 7.8 | 0.00 | 0.13 | 0.00 | 80 | 1010.9 |
| 20260507043045 | 57 | 348 | 0.9 | 6.1 | 0.00 | 0.13 | 0.00 | 81 | 1010.8 |
| 20260507042624 | 57 | 355 | 2.6 | 6.1 | 0.00 | 0.13 | 0.00 | 81 | 1010.8 |
| 20260507042034 | 57 | 27 | 1.7 | 4.3 | 0.00 | 0.13 | 0.00 | 81 | 1010.8 |
| 20260507041547 | 57 | 38 | 1.7 | 4.3 | 0.00 | 0.13 | 0.00 | 81 | 1010.5 |
| 20260507041033 | 58 | 63 | 1.7 | 4.3 | 0.00 | 0.13 | 0.00 | 80 | 1010.0 |
| 20260507040537 | 58 | 59 | 0.0 | 5.2 | 0.00 | 0.13 | 0.00 | 81 | 1010.8 |
| 20260507040046 | 58 | 0 | 1.7 | 5.2 | 0.00 | 0.13 | 0.00 | 80 | 1011.1 |
| 20260507035536 | 58 | 340 | 1.7 | 3.5 | 0.00 | 0.13 | 0.13 | 80 | 1010.9 |
| 20260507035038 | 58 | 218 | 0.0 | 4.3 | 0.00 | 0.13 | 0.13 | 80 | 1010.7 |
| 20260507034546 | 58 | 36 | 1.7 | 4.3 | 0.00 | 0.13 | 0.13 | 80 | 1010.8 |
| 20260507034034 | 58 | 53 | 0.9 | 6.1 | 0.00 | 0.13 | 0.13 | 80 | 1010.7 |
| 20260507033535 | 58 | 92 | 0.9 | 6.1 | 0.00 | 0.13 | 0.13 | 80 | 1011.1 |
| 20260507033039 | 58 | 121 | 2.6 | 6.1 | 0.00 | 0.13 | 0.13 | 80 | 1010.9 |
| 20260507032533 | 58 | 160 | 0.9 | 4.3 | 0.00 | 0.13 | 0.13 | 80 | 1011.1 |
| 20260507032035 | 58 | 92 | 0.0 | 4.3 | 0.00 | 0.13 | 0.13 | 80 | 1010.9 |
| 20260507031538 | 59 | 44 | 1.7 | 4.3 | 0.00 | 0.13 | 0.13 | 81 | 1011.2 |
| 20260507031039 | 59 | 338 | 0.0 | 3.5 | 0.00 | 0.13 | 0.13 | 81 | 1011.2 |
| 20260507030533 | 59 | 319 | 0.9 | 3.5 | 0.00 | 0.13 | 0.13 | 81 | 1011.2 |
| 20260507030047 | 59 | 37 | 1.7 | 4.3 | 0.00 | 0.13 | 0.13 | 81 | 1010.3 |
| 20260507025535 | 59 | 84 | 0.9 | 4.3 | 0.00 | 0.13 | 0.13 | 80 | 1010.5 |
| 20260507025039 | 59 | 84 | 1.7 | 6.1 | 0.00 | 0.13 | 0.13 | 80 | 1010.4 |
| 20260507024551 | 60 | 109 | 2.6 | 6.1 | 0.00 | 0.13 | 0.13 | 80 | 1010.3 |
| 20260507024034 | 60 | 355 | 1.7 | 7.8 | 0.00 | 0.13 | 0.13 | 80 | 1010.8 |
| 20260507023544 | 60 | 296 | 1.7 | 7.8 | 0.00 | 0.13 | 0.13 | 80 | 1010.9 |
| 20260507023044 | 60 | 71 | 2.6 | 7.0 | 0.00 | 0.13 | 0.13 | 80 | 1011.1 |
| 20260507022536 | 60 | 76 | 1.7 | 7.0 | 0.00 | 0.13 | 0.13 | 81 | 1010.8 |
| 20260507022036 | 61 | 34 | 0.9 | 4.3 | 0.00 | 0.13 | 0.13 | 82 | 1010.8 |
| 20260507021542 | 61 | 30 | 0.9 | 5.2 | 0.00 | 0.13 | 0.13 | 81 | 1010.4 |
| 20260507021037 | 61 | 43 | 1.7 | 5.2 | 0.00 | 0.13 | 0.13 | 81 | 1010.3 |
| 20260507020533 | 61 | 47 | 1.7 | 5.2 | 0.00 | 0.13 | 0.13 | 81 | 1009.7 |
| 20260507020104 | 61 | 53 | 2.6 | 5.2 | 0.00 | 0.13 | 0.13 | 80 | 1009.8 |
| 20260507015533 | 62 | 45 | 1.7 | 3.5 | 0.00 | 0.13 | 0.13 | 80 | 1009.9 |
| 20260507015036 | 62 | 81 | 1.7 | 4.3 | 0.00 | 0.13 | 0.13 | 79 | 1010.0 |
| 20260507014557 | 62 | 42 | 1.7 | 4.3 | 0.00 | 0.13 | 0.13 | 79 | 1010.0 |
| 20260507014035 | 63 | 0 | 0.9 | 3.5 | 0.00 | 0.13 | 0.13 | 79 | 1010.1 |
| 20260507013532 | 63 | 71 | 0.9 | 3.5 | 0.00 | 0.13 | 0.13 | 80 | 1009.9 |
| 20260507013050 | 63 | 0 | 0.9 | 2.6 | 0.00 | 0.13 | 0.13 | 80 | 1010.0 |
| 20260507012537 | 63 | 0 | 0.0 | 3.5 | 0.00 | 0.13 | 0.13 | 79 | 1010.0 |
| 20260507012037 | 63 | 332 | 1.7 | 3.5 | 0.00 | 0.13 | 0.13 | 78 | 1009.8 |
| 20260507011545 | 63 | 68 | 0.9 | 3.5 | 0.00 | 0.13 | 0.13 | 77 | 1009.5 |
| 20260507011035 | 64 | 68 | 0.9 | 6.1 | 0.00 | 0.13 | 0.13 | 77 | 1009.5 |
| 20260507010539 | 64 | 68 | 1.7 | 7.0 | 0.00 | 0.13 | 0.13 | 77 | 1009.5 |
| 20260507010044 | 64 | 46 | 1.7 | 7.0 | 0.00 | 0.13 | 0.13 | 77 | 1009.6 |
| 20260507005534 | 64 | 323 | 0.9 | 7.0 | 0.00 | 0.13 | 0.13 | 77 | 1009.5 |
| 20260507005035 | 64 | 31 | 1.7 | 7.0 | 0.00 | 0.13 | 0.13 | 76 | 1009.5 |
| 20260507004544 | 64 | 321 | 3.5 | 10.4 | 0.00 | 0.13 | 0.13 | 76 | 1009.7 |
| 20260507004033 | 65 | 26 | 1.7 | 10.4 | 0.00 | 0.13 | 0.13 | 76 | 1009.7 |
| 20260507003533 | 64 | 31 | 1.7 | 8.7 | 0.00 | 0.13 | 0.13 | 77 | 1009.7 |
| 20260507003047 | 64 | 96 | 4.3 | 8.7 | 0.00 | 0.13 | 0.13 | 77 | 1009.8 |
| 20260507002533 | 64 | 108 | 2.6 | 7.0 | 0.00 | 0.13 | 0.13 | 79 | 1009.6 |
| 20260507002034 | 64 | 150 | 0.9 | 4.3 | 0.00 | 0.13 | 0.13 | 78 | 1009.7 |
| 20260507001538 | 64 | 150 | 1.7 | 7.0 | 0.00 | 0.13 | 0.13 | 78 | 1009.5 |
| 20260507001033 | 64 | 232 | 2.6 | 10.4 | 0.00 | 0.13 | 0.13 | 78 | 1009.4 |
| 20260507000533 | 65 | 124 | 0.9 | 10.4 | 0.00 | 0.13 | 0.13 | 78 | 1009.2 |
| 20260507000038 | 65 | 303 | 4.3 | 10.4 | 0.00 | 0.13 | 0.13 | 77 | 1009.3 |
| 20260506235534 | 65 | 316 | 2.6 | 8.7 | 0.00 | 0.13 | 0.13 | 77 | 1009.3 |
| 20260506235035 | 65 | 293 | 2.6 | 12.2 | 0.00 | 0.13 | 0.13 | 76 | 1009.2 |
| 20260506234550 | 65 | 274 | 2.6 | 12.2 | 0.00 | 0.13 | 0.13 | 76 | 1009.3 |
| 20260506234034 | 65 | 284 | 7.0 | 12.2 | 0.00 | 0.13 | 0.13 | 76 | 1009.2 |
| 20260506233536 | 65 | 0 | 2.6 | 9.6 | 0.00 | 0.13 | 0.13 | 78 | 1009.1 |
| 20260506233057 | 65 | 240 | 4.3 | 7.8 | 0.00 | 0.13 | 0.13 | 78 | 1009.0 |
| 20260506232532 | 66 | 254 | 2.6 | 9.6 | 0.00 | 0.13 | 0.13 | 78 | 1008.8 |
| 20260506232034 | 66 | 259 | 2.6 | 9.6 | 0.00 | 0.13 | 0.13 | 77 | 1008.7 |
| 20260506231551 | 67 | 326 | 2.6 | 9.6 | 0.00 | 0.13 | 0.13 | 76 | 1008.9 |
| 20260506231033 | 67 | 309 | 1.7 | 7.8 | 0.00 | 0.13 | 0.13 | 75 | 1008.8 |
| 20260506230533 | 67 | 317 | 3.5 | 11.3 | 0.00 | 0.13 | 0.13 | 74 | 1008.5 |
| 20260506230053 | 67 | 327 | 3.5 | 11.3 | 0.00 | 0.13 | 0.13 | 73 | 1008.4 |
| 20260506225535 | 68 | 322 | 4.3 | 11.3 | 0.00 | 0.13 | 0.13 | 73 | 1008.5 |
| 20260506225033 | 68 | 317 | 7.0 | 11.3 | 0.00 | 0.13 | 0.13 | 72 | 1008.5 |
| 20260506224549 | 68 | 316 | 6.1 | 11.3 | 0.00 | 0.13 | 0.13 | 72 | 1008.7 |
| 20260506224034 | 69 | 333 | 4.3 | 9.6 | 0.00 | 0.13 | 0.13 | 71 | 1008.5 |
| 20260506223534 | 69 | 319 | 3.5 | 8.7 | 0.00 | 0.13 | 0.13 | 71 | 1008.3 |
| 20260506223052 | 70 | 312 | 2.6 | 8.7 | 0.00 | 0.13 | 0.13 | 71 | 1008.2 |
| 20260506222536 | 70 | 355 | 4.3 | 8.7 | 0.00 | 0.13 | 0.13 | 70 | 1008.3 |
| 20260506222032 | 71 | 333 | 3.5 | 8.7 | 0.00 | 0.13 | 0.13 | 69 | 1008.1 |
| 20260506221546 | 71 | 333 | 2.6 | 5.2 | 0.00 | 0.13 | 0.13 | 70 | 1008.3 |
| 20260506221036 | 71 | 0 | 0.0 | 1.7 | 0.00 | 0.13 | 0.13 | 72 | 1008.2 |
| 20260506220537 | 71 | 0 | 0.0 | 2.6 | 0.00 | 0.13 | 0.13 | 70 | 1008.1 |
| 20260506220045 | 71 | 0 | 0.0 | 2.6 | 0.00 | 0.13 | 0.13 | 69 | 1008.2 |
| 20260506215539 | 71 | 263 | 0.9 | 2.6 | 0.00 | 0.13 | 0.13 | 69 | 1008.1 |
| 20260506215033 | 71 | 271 | 0.0 | 2.6 | 0.00 | 0.13 | 0.13 | 70 | 1008.0 |
| 20260506214544 | 71 | 299 | 0.0 | 2.6 | 0.00 | 0.13 | 0.13 | 69 | 1007.9 |
| 20260506214033 | 72 | 320 | 0.0 | 2.6 | 0.00 | 0.13 | 0.13 | 70 | 1007.8 |